LHX8971 LOWK-LEPA

Flight info

Callsign LHX8971
Flight time 1h 51m
Altitude 33000
Route BERTA1L/10L BERTA DCT RIFEN DCT OSLOP DCT BENUS DCT UNITA DCT PIDAD DCT TALEP DCT RARQU DCT BALEN UT250 RIXOT RIXO2P
Aircraft A319/M-SDE3FGHIRWY/LB1

Departure

Time 2026-04-25 20:10
Airport Klagenfurt Airport (LOWK)

Arrival

Time 2026-04-25 22:02
Airport Palma de Mallorca Airport (LEPA)
Time Latitude Longitude Altitude Speed Heading
2026-04-25 20:05 46.64644 14.32462 1443 ft 0 kts 197°
2026-04-25 20:08 46.64599 14.32441 1441 ft 14 kts 197°
2026-04-25 20:09 46.64525 14.32439 1440 ft 9 kts 127°
2026-04-25 20:09 46.64513 14.32477 1440 ft 4 kts 111°
2026-04-25 20:09 46.64502 14.32522 1439 ft 10 kts 109°
2026-04-25 20:09 46.64402 14.33026 1439 ft 89 kts 109°
2026-04-25 20:10 46.64261 14.33746 1435 ft 128 kts 105°
2026-04-25 20:10 46.63853 14.35806 1780 ft 170 kts 105°
2026-04-25 20:10 46.63582 14.37269 2758 ft 152 kts 105°
2026-04-25 20:10 46.63283 14.38724 3408 ft 153 kts 105°
2026-04-25 20:11 46.62981 14.40199 4045 ft 154 kts 105°
2026-04-25 20:11 46.62679 14.41680 4656 ft 155 kts 105°
2026-04-25 20:11 46.62365 14.43228 5121 ft 167 kts 105°
2026-04-25 20:11 46.62027 14.44902 5547 ft 183 kts 105°
2026-04-25 20:12 46.61657 14.46753 5996 ft 200 kts 106°
2026-04-25 20:12 46.61251 14.48764 6419 ft 219 kts 106°
2026-04-25 20:12 46.60806 14.50983 6875 ft 239 kts 105°
2026-04-25 20:12 46.60487 14.52565 7225 ft 250 kts 105°
2026-04-25 20:13 46.59807 14.55939 7850 ft 274 kts 105°
2026-04-25 20:13 46.58958 14.58511 8344 ft 292 kts 131°
2026-04-25 20:13 46.57291 14.60124 9069 ft 297 kts 164°
2026-04-25 20:13 46.55241 14.60603 9887 ft 301 kts 175°
2026-04-25 20:14 46.53173 14.60926 10581 ft 309 kts 174°
2026-04-25 20:14 46.50973 14.61314 11044 ft 326 kts 173°
2026-04-25 20:14 46.48676 14.61760 11528 ft 339 kts 173°
2026-04-25 20:14 46.46333 14.61947 12178 ft 343 kts 189°
2026-04-25 20:15 46.44138 14.60764 12871 ft 340 kts 216°
2026-04-25 20:15 46.42464 14.58415 13570 ft 338 kts 233°
2026-04-25 20:15 46.40993 14.55733 14184 ft 342 kts 233°
2026-04-25 20:15 46.39515 14.53060 14788 ft 347 kts 233°
2026-04-25 20:16 46.37983 14.50322 15036 ft 349 kts 233°
2026-04-25 20:16 46.36456 14.47617 15110 ft 349 kts 232°
2026-04-25 20:16 46.34928 14.44926 15008 ft 348 kts 232°
2026-04-25 20:16 46.33385 14.42219 15035 ft 347 kts 232°
2026-04-25 20:17 46.31841 14.39516 15064 ft 348 kts 232°
2026-04-25 20:17 46.30319 14.36850 15117 ft 351 kts 232°
2026-04-25 20:17 46.28738 14.34083 15556 ft 357 kts 232°
2026-04-25 20:17 46.27170 14.31348 16399 ft 356 kts 232°
2026-04-25 20:18 46.25600 14.28614 17138 ft 357 kts 232°
2026-04-25 20:18 46.24016 14.25858 17726 ft 360 kts 232°
2026-04-25 20:18 46.22411 14.23067 18369 ft 363 kts 232°
2026-04-25 20:18 46.20816 14.20294 18934 ft 365 kts 232°
2026-04-25 20:19 46.19194 14.17479 19543 ft 368 kts 232°
2026-04-25 20:19 46.17548 14.14625 20097 ft 372 kts 232°
2026-04-25 20:19 46.15885 14.11744 20652 ft 375 kts 232°
2026-04-25 20:19 46.14234 14.08885 21185 ft 378 kts 231°
2026-04-25 20:20 46.12537 14.05955 21700 ft 380 kts 231°
2026-04-25 20:20 46.10848 14.03044 22206 ft 384 kts 231°
2026-04-25 20:20 46.09132 14.00093 22722 ft 387 kts 231°
2026-04-25 20:20 46.07418 13.97143 23236 ft 391 kts 231°
2026-04-25 20:21 46.05671 13.94142 23740 ft 394 kts 231°
2026-04-25 20:21 46.03894 13.91092 24250 ft 396 kts 231°
2026-04-25 20:21 46.02126 13.88058 24740 ft 399 kts 231°
2026-04-25 20:21 46.00357 13.85024 25228 ft 402 kts 231°
2026-04-25 20:22 45.98546 13.81921 25720 ft 404 kts 231°
2026-04-25 20:22 45.97338 13.79853 26040 ft 405 kts 231°
2026-04-25 20:22 45.94929 13.75732 26633 ft 408 kts 231°
2026-04-25 20:22 45.93113 13.72634 27060 ft 410 kts 231°
2026-04-25 20:23 45.91266 13.69487 27488 ft 413 kts 231°
2026-04-25 20:23 45.89417 13.66337 27906 ft 415 kts 231°
2026-04-25 20:23 45.87564 13.63184 28311 ft 417 kts 231°
2026-04-25 20:23 45.85705 13.60007 28740 ft 418 kts 232°
2026-04-25 20:24 45.83939 13.56716 29267 ft 416 kts 235°
2026-04-25 20:24 45.82241 13.53380 29823 ft 414 kts 235°
2026-04-25 20:24 45.80564 13.50083 30348 ft 412 kts 235°
2026-04-25 20:24 45.78870 13.46749 30834 ft 411 kts 235°
2026-04-25 20:25 45.77200 13.43467 31297 ft 410 kts 235°
2026-04-25 20:25 45.75512 13.40157 31699 ft 411 kts 235°
2026-04-25 20:25 45.73831 13.36865 32051 ft 412 kts 236°
2026-04-25 20:25 45.72153 13.33578 32387 ft 413 kts 235°
2026-04-25 20:26 45.70456 13.30260 32705 ft 414 kts 234°
2026-04-25 20:26 45.68761 13.26949 32993 ft 416 kts 234°
2026-04-25 20:26 45.65377 13.20286 33055 ft 418 kts 237°
2026-04-25 20:27 45.62387 13.13209 33053 ft 417 kts 243°
2026-04-25 20:27 45.59731 13.05834 33053 ft 418 kts 244°
2026-04-25 20:28 45.57085 12.98475 33053 ft 418 kts 244°
2026-04-25 20:28 45.54429 12.91159 33054 ft 417 kts 241°
2026-04-25 20:29 45.51293 12.84209 33056 ft 418 kts 237°
2026-04-25 20:29 45.48079 12.77372 33054 ft 418 kts 237°
2026-04-25 20:30 45.44875 12.70510 33054 ft 418 kts 237°
2026-04-25 20:30 45.41657 12.63601 33053 ft 419 kts 237°
2026-04-25 20:31 45.38461 12.56742 33053 ft 419 kts 237°
2026-04-25 20:31 45.35252 12.49868 33054 ft 418 kts 237°
2026-04-25 20:32 45.32037 12.42992 33053 ft 418 kts 237°
2026-04-25 20:32 45.28827 12.36141 33052 ft 418 kts 237°
2026-04-25 20:33 45.25610 12.29294 33055 ft 418 kts 237°
2026-04-25 20:33 45.22922 12.23585 33056 ft 418 kts 237°
2026-04-25 20:34 45.19159 12.15615 33059 ft 419 kts 237°
2026-04-25 20:34 45.15913 12.08760 33062 ft 419 kts 237°
2026-04-25 20:35 45.12681 12.01948 33062 ft 419 kts 237°
2026-04-25 20:35 45.09443 11.95137 33062 ft 419 kts 236°
2026-04-25 20:36 45.06198 11.88331 33063 ft 419 kts 236°
2026-04-25 20:36 45.02949 11.81535 33064 ft 419 kts 236°
2026-04-25 20:37 44.99692 11.74737 33065 ft 419 kts 236°
2026-04-25 20:37 44.96425 11.67934 33066 ft 419 kts 236°
2026-04-25 20:38 44.93163 11.61156 33066 ft 419 kts 236°
2026-04-25 20:38 44.89898 11.54387 33066 ft 418 kts 237°
2026-04-25 20:39 44.87309 11.49029 32956 ft 419 kts 237°
2026-04-25 20:39 44.86174 11.46683 33006 ft 419 kts 237°
2026-04-25 20:40 44.83312 11.40778 33053 ft 419 kts 237°
2026-04-25 20:40 44.80343 11.34667 33064 ft 419 kts 236°
2026-04-25 20:41 44.77055 11.27915 33066 ft 419 kts 236°
2026-04-25 20:41 44.73772 11.21187 33067 ft 419 kts 236°
2026-04-25 20:42 44.70463 11.14424 33067 ft 419 kts 236°
2026-04-25 20:42 44.67172 11.07712 33066 ft 419 kts 236°
2026-04-25 20:43 44.63884 11.01024 33066 ft 419 kts 236°
2026-04-25 20:43 44.60568 10.94292 33065 ft 419 kts 236°
2026-04-25 20:44 44.57258 10.87590 33064 ft 419 kts 236°
2026-04-25 20:44 44.53944 10.80894 33063 ft 419 kts 236°
2026-04-25 20:45 44.50638 10.74231 33062 ft 418 kts 236°
2026-04-25 20:45 44.47328 10.67574 33059 ft 419 kts 236°
2026-04-25 20:46 44.44007 10.60911 33055 ft 419 kts 236°
2026-04-25 20:46 44.40668 10.54227 33051 ft 419 kts 236°
2026-04-25 20:47 44.37337 10.47576 33048 ft 419 kts 236°
2026-04-25 20:47 44.34009 10.40943 33045 ft 418 kts 236°
2026-04-25 20:48 44.30691 10.34348 33042 ft 418 kts 235°
2026-04-25 20:48 44.27357 10.27734 33040 ft 418 kts 235°
2026-04-25 20:49 44.24013 10.21114 33039 ft 418 kts 235°
2026-04-25 20:49 44.20665 10.14504 33045 ft 418 kts 235°
2026-04-25 20:50 44.17316 10.07904 33052 ft 418 kts 235°
2026-04-25 20:50 44.13946 10.01280 33059 ft 418 kts 235°
2026-04-25 20:51 44.10605 9.94728 33063 ft 418 kts 235°
2026-04-25 20:51 44.07253 9.88170 33064 ft 418 kts 235°
2026-04-25 20:52 44.04454 9.82703 33065 ft 418 kts 235°
2026-04-25 20:52 44.00520 9.75041 33066 ft 418 kts 235°
2026-04-25 20:53 43.97142 9.68475 33066 ft 418 kts 235°
2026-04-25 20:53 43.93766 9.61926 33066 ft 418 kts 235°
2026-04-25 20:54 43.90386 9.55387 33067 ft 418 kts 235°
2026-04-25 20:54 43.87024 9.48897 33067 ft 418 kts 235°
2026-04-25 20:55 43.83638 9.42375 33067 ft 418 kts 235°
2026-04-25 20:55 43.80249 9.35859 33066 ft 418 kts 235°
2026-04-25 20:56 43.76833 9.29315 33067 ft 419 kts 234°
2026-04-25 20:56 43.73433 9.22812 33067 ft 419 kts 234°
2026-04-25 20:57 43.70025 9.16305 33067 ft 419 kts 234°
2026-04-25 20:57 43.66627 9.09833 33067 ft 418 kts 234°
2026-04-25 20:58 43.63212 9.03342 33067 ft 418 kts 234°
2026-04-25 20:58 43.59821 8.96908 33067 ft 418 kts 234°
2026-04-25 20:59 43.56233 8.90605 33067 ft 418 kts 227°
2026-04-25 20:59 43.52202 8.84846 33067 ft 419 kts 226°
2026-04-25 21:00 43.48850 8.80090 33067 ft 419 kts 226°
2026-04-25 21:01 43.42108 8.70465 33067 ft 418 kts 227°
2026-04-25 21:01 43.38080 8.64711 33067 ft 418 kts 227°
2026-04-25 21:02 43.34062 8.58975 33066 ft 419 kts 227°
2026-04-25 21:02 43.30044 8.53250 33067 ft 418 kts 227°
2026-04-25 21:03 43.25996 8.47498 33067 ft 418 kts 227°
2026-04-25 21:03 43.21979 8.41791 33067 ft 419 kts 227°
2026-04-25 21:04 43.17950 8.36079 33067 ft 418 kts 227°
2026-04-25 21:04 43.13900 8.30355 33067 ft 418 kts 226°
2026-04-25 21:05 43.09858 8.24652 33067 ft 418 kts 226°
2026-04-25 21:05 43.05810 8.18956 33066 ft 418 kts 226°
2026-04-25 21:06 43.01772 8.13282 33066 ft 419 kts 226°
2026-04-25 21:06 42.97723 8.07605 33066 ft 417 kts 226°
2026-04-25 21:07 42.93664 8.01931 33066 ft 419 kts 226°
2026-04-25 21:07 42.89587 7.96241 33067 ft 419 kts 226°
2026-04-25 21:08 42.85560 7.90627 33066 ft 417 kts 226°
2026-04-25 21:08 42.81512 7.84999 33067 ft 417 kts 226°
2026-04-25 21:09 42.75420 7.76548 33066 ft 417 kts 226°
2026-04-25 21:09 42.71364 7.70933 33067 ft 417 kts 226°
2026-04-25 21:10 42.67316 7.65343 33067 ft 417 kts 226°
2026-04-25 21:10 42.63246 7.59732 33066 ft 417 kts 226°
2026-04-25 21:11 42.59197 7.54163 33066 ft 417 kts 226°
2026-04-25 21:11 42.55112 7.48557 33067 ft 418 kts 226°
2026-04-25 21:12 42.51040 7.42976 33067 ft 418 kts 226°
2026-04-25 21:12 42.47987 7.38800 33067 ft 417 kts 226°
2026-04-25 21:13 42.43249 7.32331 33067 ft 417 kts 225°
2026-04-25 21:13 42.39159 7.26758 33067 ft 417 kts 225°
2026-04-25 21:14 42.35104 7.21243 33067 ft 417 kts 225°
2026-04-25 21:14 42.31018 7.15698 33067 ft 417 kts 225°
2026-04-25 21:15 42.26926 7.10158 33067 ft 416 kts 225°
2026-04-25 21:15 42.22836 7.04628 33067 ft 417 kts 225°
2026-04-25 21:16 42.18775 6.99148 33067 ft 416 kts 225°
2026-04-25 21:16 42.14666 6.93615 33067 ft 416 kts 225°
2026-04-25 21:17 42.10600 6.88150 33067 ft 416 kts 225°
2026-04-25 21:17 42.06507 6.82659 33067 ft 416 kts 225°
2026-04-25 21:18 42.02419 6.77186 33067 ft 416 kts 225°
2026-04-25 21:18 41.98331 6.71724 33067 ft 416 kts 225°
2026-04-25 21:19 41.94232 6.66257 33067 ft 416 kts 225°
2026-04-25 21:19 41.90113 6.60773 33067 ft 416 kts 225°
2026-04-25 21:20 41.86692 6.56228 33067 ft 416 kts 225°
2026-04-25 21:20 41.81916 6.49894 33067 ft 416 kts 225°
2026-04-25 21:21 41.77824 6.44478 33067 ft 416 kts 225°
2026-04-25 21:21 41.73709 6.39042 33067 ft 416 kts 225°
2026-04-25 21:22 41.69606 6.33631 33067 ft 416 kts 225°
2026-04-25 21:22 41.65460 6.28176 33066 ft 416 kts 225°
2026-04-25 21:23 41.61348 6.22775 33066 ft 416 kts 225°
2026-04-25 21:23 41.57241 6.17389 33067 ft 416 kts 225°
2026-04-25 21:24 41.53097 6.11967 33067 ft 416 kts 225°
2026-04-25 21:24 41.48974 6.06582 33066 ft 417 kts 225°
2026-04-25 21:25 41.44837 6.01187 33067 ft 417 kts 225°
2026-04-25 21:25 41.40688 5.95791 33067 ft 417 kts 225°
2026-04-25 21:26 41.36572 5.90442 33067 ft 417 kts 225°
2026-04-25 21:26 41.32427 5.85069 33067 ft 416 kts 225°
2026-04-25 21:27 41.28292 5.79718 33067 ft 416 kts 225°
2026-04-25 21:27 41.24142 5.74359 33067 ft 416 kts 225°
2026-04-25 21:28 41.20023 5.69048 33066 ft 416 kts 225°
2026-04-25 21:28 41.15855 5.63687 33066 ft 416 kts 225°
2026-04-25 21:29 41.11711 5.58364 33066 ft 416 kts 225°
2026-04-25 21:29 41.07564 5.53048 33066 ft 416 kts 225°
2026-04-25 21:30 41.03429 5.47758 33066 ft 416 kts 225°
2026-04-25 21:30 40.99945 5.43305 33066 ft 416 kts 225°
2026-04-25 21:31 40.95100 5.37129 33067 ft 416 kts 225°
2026-04-25 21:31 40.90963 5.31863 33067 ft 415 kts 224°
2026-04-25 21:32 40.86790 5.26561 32733 ft 414 kts 224°
2026-04-25 21:32 40.84739 5.23957 32486 ft 412 kts 224°
2026-04-25 21:32 40.82667 5.21332 32236 ft 410 kts 224°
2026-04-25 21:33 40.80622 5.18742 31988 ft 407 kts 224°
2026-04-25 21:33 40.78598 5.16182 31742 ft 407 kts 224°
2026-04-25 21:33 40.76571 5.13619 31496 ft 407 kts 224°
2026-04-25 21:33 40.74516 5.11024 31246 ft 407 kts 224°
2026-04-25 21:34 40.72485 5.08461 30996 ft 408 kts 224°
2026-04-25 21:34 40.70447 5.05893 30678 ft 408 kts 224°
2026-04-25 21:34 40.68391 5.03304 30262 ft 409 kts 224°
2026-04-25 21:34 40.66336 5.00719 29731 ft 410 kts 224°
2026-04-25 21:35 40.64271 4.98122 29138 ft 410 kts 224°
2026-04-25 21:35 40.62229 4.95557 28525 ft 410 kts 224°
2026-04-25 21:35 40.60178 4.92983 27889 ft 411 kts 224°
2026-04-25 21:35 40.58112 4.90393 27339 ft 408 kts 224°
2026-04-25 21:36 40.56067 4.87831 26888 ft 404 kts 224°
2026-04-25 21:36 40.54069 4.85331 26434 ft 400 kts 224°
2026-04-25 21:36 40.52061 4.82818 25978 ft 396 kts 224°
2026-04-25 21:36 40.50083 4.80346 25529 ft 392 kts 224°
2026-04-25 21:37 40.48126 4.77902 25084 ft 388 kts 225°
2026-04-25 21:37 40.46821 4.76276 24788 ft 386 kts 225°
2026-04-25 21:37 40.44255 4.73076 24201 ft 382 kts 225°
2026-04-25 21:37 40.42343 4.70695 23762 ft 379 kts 225°
2026-04-25 21:38 40.40469 4.68292 23321 ft 376 kts 227°
2026-04-25 21:38 40.38719 4.65752 22894 ft 373 kts 231°
2026-04-25 21:38 40.37111 4.63064 22859 ft 377 kts 234°
2026-04-25 21:38 40.35576 4.60299 22884 ft 378 kts 235°
2026-04-25 21:39 40.34045 4.57529 22909 ft 379 kts 235°
2026-04-25 21:39 40.32504 4.54744 22934 ft 379 kts 235°
2026-04-25 21:39 40.30963 4.51960 22959 ft 379 kts 235°
2026-04-25 21:39 40.29406 4.49151 22984 ft 379 kts 235°
2026-04-25 21:40 40.27855 4.46356 23008 ft 379 kts 235°
2026-04-25 21:40 40.26318 4.43590 23032 ft 380 kts 235°
2026-04-25 21:40 40.24760 4.40787 23046 ft 380 kts 235°
2026-04-25 21:40 40.23211 4.38004 23039 ft 380 kts 235°
2026-04-25 21:41 40.21648 4.35198 22606 ft 381 kts 235°
2026-04-25 21:41 40.20105 4.32430 22109 ft 379 kts 234°
2026-04-25 21:41 40.18556 4.29654 21638 ft 376 kts 234°
2026-04-25 21:41 40.17027 4.26918 21186 ft 371 kts 234°
2026-04-25 21:42 40.15533 4.24243 20750 ft 368 kts 234°
2026-04-25 21:42 40.14027 4.21547 20312 ft 365 kts 234°
2026-04-25 21:42 40.12534 4.18877 19879 ft 362 kts 234°
2026-04-25 21:42 40.11055 4.16236 19451 ft 360 kts 234°
2026-04-25 21:43 40.09594 4.13630 19026 ft 357 kts 234°
2026-04-25 21:43 40.08128 4.11017 18600 ft 355 kts 234°
2026-04-25 21:43 40.06692 4.08462 18190 ft 352 kts 234°
2026-04-25 21:43 40.05240 4.05882 17777 ft 350 kts 234°
2026-04-25 21:44 40.03821 4.03362 17372 ft 348 kts 234°
2026-04-25 21:44 40.02390 4.00822 16960 ft 347 kts 234°
2026-04-25 21:44 39.99547 3.95780 16135 ft 343 kts 234°
2026-04-25 21:45 39.98141 3.93292 15727 ft 342 kts 234°
2026-04-25 21:45 39.97199 3.91623 15451 ft 341 kts 234°
2026-04-25 21:45 39.95343 3.88337 14902 ft 338 kts 234°
2026-04-25 21:45 39.93955 3.85880 14490 ft 335 kts 234°
2026-04-25 21:46 39.92575 3.83446 14136 ft 332 kts 234°
2026-04-25 21:46 39.91239 3.81092 14001 ft 321 kts 234°
2026-04-25 21:46 39.89928 3.78782 13888 ft 309 kts 234°
2026-04-25 21:46 39.88665 3.76556 13615 ft 305 kts 234°
2026-04-25 21:47 39.87413 3.74351 13248 ft 304 kts 234°
2026-04-25 21:47 39.86161 3.72149 12893 ft 301 kts 234°
2026-04-25 21:47 39.84927 3.69979 12551 ft 299 kts 234°
2026-04-25 21:47 39.83707 3.67835 12215 ft 297 kts 234°
2026-04-25 21:48 39.82484 3.65690 11879 ft 295 kts 234°
2026-04-25 21:48 39.81263 3.63549 11550 ft 292 kts 235°
2026-04-25 21:48 39.80062 3.61442 11227 ft 289 kts 235°
2026-04-25 21:48 39.78888 3.59384 11040 ft 280 kts 235°
2026-04-25 21:49 39.77733 3.57362 10814 ft 275 kts 235°
2026-04-25 21:49 39.76611 3.55397 10503 ft 273 kts 235°
2026-04-25 21:49 39.75483 3.53423 10196 ft 270 kts 235°
2026-04-25 21:49 39.74379 3.51493 9898 ft 268 kts 234°
2026-04-25 21:50 39.73267 3.49551 9598 ft 265 kts 234°
2026-04-25 21:50 39.72165 3.47627 9298 ft 263 kts 234°
2026-04-25 21:50 39.71078 3.45732 9004 ft 261 kts 234°
2026-04-25 21:50 39.70137 3.43751 8692 ft 258 kts 251°
2026-04-25 21:51 39.69791 3.41504 8364 ft 256 kts 270°
2026-04-25 21:51 39.69846 3.39202 8044 ft 255 kts 274°
2026-04-25 21:51 39.69942 3.36905 7733 ft 254 kts 274°
2026-04-25 21:51 39.70034 3.34640 7433 ft 253 kts 273°
2026-04-25 21:52 39.70120 3.32359 7132 ft 252 kts 273°
2026-04-25 21:52 39.70199 3.30109 6836 ft 250 kts 273°
2026-04-25 21:52 39.70274 3.27856 6541 ft 249 kts 273°
2026-04-25 21:52 39.70345 3.25631 6250 ft 247 kts 272°
2026-04-25 21:53 39.70414 3.23418 5961 ft 246 kts 272°
2026-04-25 21:53 39.70482 3.21211 5688 ft 244 kts 272°
2026-04-25 21:53 39.70549 3.19013 5413 ft 243 kts 272°
2026-04-25 21:53 39.70616 3.16845 5193 ft 238 kts 272°
2026-04-25 21:54 39.70680 3.14716 4973 ft 233 kts 272°
2026-04-25 21:54 39.70743 3.12623 4703 ft 231 kts 272°
2026-04-25 21:54 39.70802 3.10559 4469 ft 229 kts 270°
2026-04-25 21:54 39.70548 3.08553 4431 ft 221 kts 251°
2026-04-25 21:55 39.69926 3.06753 4231 ft 217 kts 243°
2026-04-25 21:55 39.69214 3.05081 4044 ft 211 kts 241°
2026-04-25 21:55 39.68475 3.03448 3868 ft 206 kts 240°
2026-04-25 21:55 39.67753 3.01897 3728 ft 197 kts 239°
2026-04-25 21:56 39.67050 3.00407 3497 ft 191 kts 239°
2026-04-25 21:56 39.66583 2.99423 3358 ft 190 kts 239°
2026-04-25 21:56 39.65672 2.97514 3066 ft 185 kts 239°
2026-04-25 21:56 39.65012 2.96129 2908 ft 180 kts 239°
2026-04-25 21:57 39.64349 2.94740 2863 ft 180 kts 239°
2026-04-25 21:57 39.63686 2.93350 2881 ft 180 kts 239°
2026-04-25 21:57 39.63032 2.91980 2795 ft 181 kts 239°
2026-04-25 21:57 39.62380 2.90608 2556 ft 174 kts 239°
2026-04-25 21:58 39.61766 2.89312 2328 ft 163 kts 239°
2026-04-25 21:58 39.61200 2.88120 2116 ft 148 kts 239°
2026-04-25 21:58 39.60681 2.87026 1898 ft 136 kts 239°
2026-04-25 21:58 39.60191 2.85991 1729 ft 135 kts 239°
2026-04-25 21:59 39.59697 2.84949 1561 ft 135 kts 239°
2026-04-25 21:59 39.59207 2.83915 1390 ft 135 kts 239°
2026-04-25 21:59 39.58718 2.82883 1213 ft 134 kts 239°
2026-04-25 22:00 39.57747 2.80832 850 ft 133 kts 239°
2026-04-25 22:00 39.57262 2.79808 668 ft 133 kts 240°
2026-04-25 22:00 39.56783 2.78796 490 ft 132 kts 239°
2026-04-25 22:00 39.56302 2.77783 312 ft 132 kts 239°
2026-04-25 22:01 39.55819 2.76781 136 ft 131 kts 240°
2026-04-25 22:01 39.55347 2.75773 7 ft 128 kts 240°
2026-04-25 22:01 39.54998 2.75013 8 ft 84 kts 243°
2026-04-25 22:01 39.54801 2.74598 17 ft 83 kts 237°
2026-04-25 22:02 39.54552 2.74045 26 ft 46 kts 259°
2026-04-25 22:02 39.54570 2.73660 28 ft 21 kts 311°
2026-04-25 22:02 39.54615 2.73624 28 ft 4 kts 341°
2026-04-25 22:02 39.54624 2.73621 28 ft 0 kts 349°
2026-04-25 22:04 39.54633 2.73626 28 ft 6 kts 43°
2026-04-25 22:04 39.54686 2.73740 28 ft 21 kts 59°
2026-04-25 22:05 39.54768 2.73902 28 ft 21 kts 63°
2026-04-25 22:05 39.54866 2.73990 29 ft 17 kts 327°
2026-04-25 22:05 39.54920 2.73933 30 ft 9 kts 281°
2026-04-25 22:05 39.54902 2.73844 30 ft 11 kts 248°
2026-04-25 22:06 39.54871 2.73739 28 ft 13 kts 249°